Time,TemperatureF,DewpointF,PressureIn,WindDirection,WindDirectionDegrees,WindSpeedMPH,WindSpeedGustMPH,Humidity,HourlyPrecipIn,Conditions,Clouds,dailyrainin,SoftwareType,DateUTC
2013-08-19 00:01:00,63.2,61.5,30.07,WNW,295,0.0,0.0,94,0.00,,CLR,0.02,VWS V14.01,2013-08-19 04:01:00,
2013-08-19 00:06:00,63.2,61.8,30.07,WNW,295,0.0,0.0,95,0.00,,CLR,0.02,VWS V14.01,2013-08-19 04:06:00,
2013-08-19 00:11:00,63.2,61.8,30.07,WNW,295,0.0,0.0,95,0.00,,CLR,0.00,VWS V14.01,2013-08-19 04:11:00,
2013-08-19 00:16:00,63.2,61.8,30.07,WNW,295,0.0,0.0,95,0.00,,CLR,0.00,VWS V14.01,2013-08-19 04:16:00,
2013-08-19 00:21:00,63.1,61.7,30.07,WNW,295,0.0,0.0,95,0.00,,CLR,0.00,VWS V14.01,2013-08-19 04:21:00,
2013-08-19 00:26:00,63.1,61.7,30.07,WNW,295,0.0,0.0,95,0.00,,CLR,0.00,VWS V14.01,2013-08-19 04:26:00,
2013-08-19 00:31:00,62.9,61.5,30.07,WNW,295,0.0,0.0,95,0.00,,CLR,0.00,VWS V14.01,2013-08-19 04:31:00,
2013-08-19 00:36:00,62.7,61.2,30.07,WNW,295,0.0,0.0,95,0.00,,CLR,0.00,VWS V14.01,2013-08-19 04:36:00,
2013-08-19 00:41:00,62.7,61.2,30.07,WNW,295,0.0,0.0,95,0.00,,CLR,0.00,VWS V14.01,2013-08-19 04:41:00,
2013-08-19 00:46:00,62.6,61.2,30.07,WNW,295,0.0,0.0,95,0.00,,CLR,0.00,VWS V14.01,2013-08-19 04:46:00,
2013-08-19 00:51:00,62.6,61.2,30.07,WNW,295,0.0,0.0,95,0.00,,CLR,0.00,VWS V14.01,2013-08-19 04:51:00,
2013-08-19 00:56:00,62.4,61.0,30.07,WNW,295,0.0,0.0,95,0.00,,CLR,0.00,VWS V14.01,2013-08-19 04:56:00,
2013-08-19 01:01:00,62.4,61.0,30.07,WNW,295,0.0,0.0,95,0.00,,CLR,0.00,VWS V14.01,2013-08-19 05:01:00,
2013-08-19 01:06:00,62.3,60.8,30.07,WNW,295,0.0,0.0,95,0.00,,CLR,0.00,VWS V14.01,2013-08-19 05:06:00,
2013-08-19 01:11:00,62.4,61.2,30.07,WNW,295,0.0,0.0,96,0.00,,CLR,0.00,VWS V14.01,2013-08-19 05:11:00,
2013-08-19 01:16:00,62.4,61.2,30.07,WNW,295,0.0,0.0,96,0.00,,CLR,0.00,VWS V14.01,2013-08-19 05:16:00,
2013-08-19 01:21:00,62.4,61.2,30.05,WNW,295,0.0,0.0,96,0.00,,CLR,0.00,VWS V14.01,2013-08-19 05:21:00,
2013-08-19 01:26:00,62.4,61.2,30.05,WNW,295,0.0,0.0,96,0.00,,CLR,0.00,VWS V14.01,2013-08-19 05:26:00,
2013-08-19 01:31:00,62.6,61.5,30.05,WNW,295,0.0,0.0,96,0.00,,CLR,0.00,VWS V14.01,2013-08-19 05:31:00,
2013-08-19 01:36:00,62.6,61.5,30.05,WNW,295,0.0,0.0,96,0.00,,FEW120,0.00,VWS V14.01,2013-08-19 05:36:00,
2013-08-19 01:41:00,62.6,61.5,30.05,WNW,295,0.0,0.0,96,0.00,,FEW120,0.00,VWS V14.01,2013-08-19 05:41:00,
2013-08-19 01:46:00,62.6,61.5,30.05,WNW,295,0.0,0.0,96,0.00,,FEW120,0.00,VWS V14.01,2013-08-19 05:46:00,
2013-08-19 01:51:00,62.6,61.5,30.05,WNW,295,0.0,0.0,96,0.00,,FEW120,0.00,VWS V14.01,2013-08-19 05:51:00,
2013-08-19 01:56:00,62.4,61.2,30.05,WNW,295,0.0,0.0,96,0.00,,SCT120,0.00,VWS V14.01,2013-08-19 05:56:00,
2013-08-19 02:01:00,62.4,61.2,30.05,WNW,295,0.0,0.0,96,0.00,,SCT120,0.00,VWS V14.01,2013-08-19 06:01:00,
2013-08-19 02:06:00,62.4,61.5,30.05,WNW,295,0.0,0.0,97,0.00,,SCT120,0.00,VWS V14.01,2013-08-19 06:06:00,
2013-08-19 02:11:00,62.4,61.5,30.05,WNW,295,0.0,0.0,97,0.00,,SCT120,0.00,VWS V14.01,2013-08-19 06:11:00,
2013-08-19 02:16:00,62.4,61.5,30.05,WNW,295,0.0,0.0,97,0.00,,SCT120,0.00,VWS V14.01,2013-08-19 06:16:00,
2013-08-19 02:25:00,62.3,61.4,30.06,WNW,292,0.0,0.0,97,0.00,,SCT120,0.00,VWS V14.01,2013-08-19 06:25:00,
2013-08-19 02:30:00,62.3,61.4,30.06,WNW,292,0.0,0.0,97,0.00,,SCT120,0.00,VWS V14.01,2013-08-19 06:30:00,
2013-08-19 02:35:00,62.1,61.2,30.06,WNW,292,0.0,0.0,97,0.00,,SCT120,0.00,VWS V14.01,2013-08-19 06:35:00,
2013-08-19 02:40:00,62.1,61.2,30.06,WNW,292,0.0,0.0,97,0.00,,SCT120,0.00,VWS V14.01,2013-08-19 06:40:00,
2013-08-19 02:45:00,62.1,61.2,30.05,WNW,292,0.0,0.0,97,0.00,,SCT120,0.00,VWS V14.01,2013-08-19 06:45:00,
2013-08-19 02:50:00,62.3,61.4,30.05,WNW,292,0.0,0.0,97,0.00,,SCT120,0.00,VWS V14.01,2013-08-19 06:50:00,
2013-08-19 02:55:00,62.3,61.4,30.05,WNW,292,0.0,0.0,97,0.00,,SCT120,0.00,VWS V14.01,2013-08-19 06:55:00,
2013-08-19 03:00:00,62.1,61.2,30.04,WNW,292,0.0,0.0,97,0.00,,SCT120,0.00,VWS V14.01,2013-08-19 07:00:00,
2013-08-19 03:05:00,62.0,61.1,30.04,WNW,292,0.0,0.0,97,0.00,,SCT120,0.00,VWS V14.01,2013-08-19 07:05:00,
2013-08-19 03:10:00,61.8,60.9,30.04,WNW,292,0.0,0.0,97,0.00,,SCT120,0.00,VWS V14.01,2013-08-19 07:10:00,
2013-08-19 03:15:00,61.6,60.7,30.04,WNW,292,0.0,0.0,97,0.00,,SCT120,0.00,VWS V14.01,2013-08-19 07:15:00,
2013-08-19 03:20:00,61.6,60.7,30.04,WNW,292,0.0,0.0,97,0.00,,SCT120,0.00,VWS V14.01,2013-08-19 07:20:00,
2013-08-19 03:25:00,61.5,60.6,30.04,WNW,292,0.0,0.0,97,0.00,,SCT120,0.00,VWS V14.01,2013-08-19 07:25:00,
2013-08-19 03:30:00,61.3,60.4,30.05,WNW,292,0.0,0.0,97,0.00,,SCT120,0.00,VWS V14.01,2013-08-19 07:30:00,
2013-08-19 03:35:00,61.2,60.3,30.05,WNW,292,0.0,0.0,97,0.00,,SCT120,0.00,VWS V14.01,2013-08-19 07:35:00,
2013-08-19 03:40:00,61.2,60.3,30.05,WNW,292,0.0,0.0,97,0.00,,SCT120,0.00,VWS V14.01,2013-08-19 07:40:00,
2013-08-19 03:45:00,61.0,60.2,30.04,WNW,292,0.0,0.0,97,0.00,,SCT120,0.00,VWS V14.01,2013-08-19 07:45:00,
2013-08-19 03:50:00,61.0,60.2,30.04,WNW,292,0.0,0.0,97,0.00,,SCT120,0.00,VWS V14.01,2013-08-19 07:50:00,
2013-08-19 03:55:00,61.0,60.2,30.04,WNW,292,0.0,0.0,97,0.00,,SCT120,0.00,VWS V14.01,2013-08-19 07:55:00,
2013-08-19 04:00:00,61.0,60.2,30.04,WNW,292,0.0,0.0,97,0.00,,SCT120,0.00,VWS V14.01,2013-08-19 08:00:00,
2013-08-19 04:05:00,61.0,60.2,30.04,WNW,292,0.0,0.0,97,0.00,,SCT120,0.00,VWS V14.01,2013-08-19 08:05:00,
2013-08-19 04:10:00,61.0,60.2,30.04,WNW,292,0.0,0.0,97,0.00,,SCT120,0.00,VWS V14.01,2013-08-19 08:10:00,
2013-08-19 04:15:00,61.0,60.2,30.04,WNW,292,0.0,0.0,97,0.00,,SCT120,0.00,VWS V14.01,2013-08-19 08:15:00,
2013-08-19 04:20:00,60.9,60.0,30.04,WNW,292,0.0,0.0,97,0.00,,SCT120,0.00,VWS V14.01,2013-08-19 08:20:00,
2013-08-19 04:25:00,60.9,60.0,30.04,WNW,292,0.0,0.0,97,0.00,,SCT120,0.00,VWS V14.01,2013-08-19 08:25:00,
2013-08-19 04:30:00,60.9,60.0,30.04,WNW,292,0.0,0.0,97,0.00,,SCT120,0.00,VWS V14.01,2013-08-19 08:30:00,
2013-08-19 04:35:00,60.7,59.8,30.04,WNW,292,0.0,0.0,97,0.00,,SCT120,0.00,VWS V14.01,2013-08-19 08:35:00,
2013-08-19 04:40:00,60.9,60.3,30.04,WNW,292,0.0,0.0,98,0.00,,SCT120,0.00,VWS V14.01,2013-08-19 08:40:00,
2013-08-19 04:45:00,60.9,60.3,30.04,WNW,292,0.0,0.0,98,0.00,,SCT120,0.00,VWS V14.01,2013-08-19 08:45:00,
2013-08-19 04:50:00,60.7,60.1,30.04,WNW,292,0.0,0.0,98,0.00,,SCT120,0.00,VWS V14.01,2013-08-19 08:50:00,
2013-08-19 04:55:00,60.7,60.1,30.04,WNW,292,0.0,0.0,98,0.00,,SCT120,0.00,VWS V14.01,2013-08-19 08:55:00,
2013-08-19 05:00:00,60.7,60.1,30.04,WNW,292,0.0,0.0,98,0.00,,SCT120,0.00,VWS V14.01,2013-08-19 09:00:00,
2013-08-19 05:05:00,60.5,59.9,30.04,WNW,292,0.0,0.0,98,0.00,,SCT120,0.00,VWS V14.01,2013-08-19 09:05:00,
2013-08-19 05:10:00,60.5,59.9,30.04,WNW,292,0.0,0.0,98,0.00,,SCT120,0.00,VWS V14.01,2013-08-19 09:10:00,
2013-08-19 05:15:00,60.4,59.8,30.04,WNW,292,0.0,0.0,98,0.00,,SCT120,0.00,VWS V14.01,2013-08-19 09:15:00,
2013-08-19 05:20:00,60.4,59.8,30.04,WNW,292,0.0,0.0,98,0.00,,SCT120,0.00,VWS V14.01,2013-08-19 09:20:00,
2013-08-19 05:25:00,60.4,59.8,30.04,WNW,292,0.0,0.0,98,0.00,,SCT120,0.00,VWS V14.01,2013-08-19 09:25:00,
2013-08-19 05:30:00,60.4,59.8,30.05,WNW,292,0.0,0.0,98,0.00,,SCT120,0.00,VWS V14.01,2013-08-19 09:30:00,
2013-08-19 05:35:00,60.2,59.6,30.05,WNW,292,0.0,0.0,98,0.00,,SCT120,0.00,VWS V14.01,2013-08-19 09:35:00,
2013-08-19 05:40:00,60.2,59.6,30.05,WNW,292,0.0,0.0,98,0.00,,SCT120,0.00,VWS V14.01,2013-08-19 09:40:00,
2013-08-19 05:45:00,60.2,59.6,30.06,WNW,292,0.0,0.0,98,0.00,,SCT120,0.00,VWS V14.01,2013-08-19 09:45:00,
2013-08-19 05:50:00,60.2,59.6,30.06,WNW,292,0.0,0.0,98,0.00,,SCT120,0.00,VWS V14.01,2013-08-19 09:50:00,
2013-08-19 05:55:00,60.2,59.6,30.06,WNW,292,0.0,0.0,98,0.00,,SCT120,0.00,VWS V14.01,2013-08-19 09:55:00,
2013-08-19 06:00:00,60.1,59.5,30.05,WNW,292,0.0,0.0,98,0.00,,SCT120,0.00,VWS V14.01,2013-08-19 10:00:00,
2013-08-19 06:05:00,60.2,59.6,30.05,WNW,292,0.0,0.0,98,0.00,,SCT120,0.00,VWS V14.01,2013-08-19 10:05:00,
2013-08-19 06:10:00,60.2,59.6,30.05,WNW,292,0.0,0.0,98,0.00,,SCT120,0.00,VWS V14.01,2013-08-19 10:10:00,
2013-08-19 06:15:00,60.2,59.6,30.05,WNW,292,0.0,0.0,98,0.00,,SCT120,0.00,VWS V14.01,2013-08-19 10:15:00,
2013-08-19 06:20:00,60.2,59.6,30.05,WNW,292,0.0,0.0,98,0.00,,SCT120,0.00,VWS V14.01,2013-08-19 10:20:00,
2013-08-19 06:25:00,60.2,59.6,30.05,WNW,292,0.0,0.0,98,0.00,,SCT120,0.00,VWS V14.01,2013-08-19 10:25:00,
2013-08-19 06:30:00,60.2,59.6,30.05,WNW,292,0.0,0.0,98,0.00,,SCT120,0.00,VWS V14.01,2013-08-19 10:30:00,
2013-08-19 06:35:00,60.1,59.5,30.05,WNW,292,0.0,0.0,98,0.00,,SCT120,0.00,VWS V14.01,2013-08-19 10:35:00,
2013-08-19 06:40:00,60.2,59.6,30.05,WNW,292,0.0,0.0,98,0.00,,SCT120,0.00,VWS V14.01,2013-08-19 10:40:00,
2013-08-19 06:45:00,60.4,59.8,30.05,WNW,292,0.0,0.0,98,0.00,,SCT120,0.00,VWS V14.01,2013-08-19 10:45:00,
2013-08-19 06:50:00,60.4,59.8,30.05,WNW,292,0.0,0.0,98,0.00,,SCT120,0.00,VWS V14.01,2013-08-19 10:50:00,
2013-08-19 06:55:00,60.4,59.8,30.05,WNW,292,0.0,0.0,98,0.00,,SCT120,0.00,VWS V14.01,2013-08-19 10:55:00,
2013-08-19 07:00:00,60.7,60.1,30.06,WNW,292,0.0,0.0,98,0.00,,SCT120,0.00,VWS V14.01,2013-08-19 11:00:00,
2013-08-19 07:05:00,61.0,60.4,30.06,WNW,292,0.0,0.0,98,0.00,,SCT120,0.00,VWS V14.01,2013-08-19 11:05:00,
2013-08-19 07:10:00,61.3,60.7,30.06,WNW,292,0.0,1.0,98,0.00,,SCT120,0.00,VWS V14.01,2013-08-19 11:10:00,
2013-08-19 07:15:00,61.5,60.9,30.06,WNW,292,0.0,2.0,98,0.00,,SCT120,0.00,VWS V14.01,2013-08-19 11:15:00,
2013-08-19 07:20:00,61.5,60.9,30.06,WNW,292,0.0,1.0,98,0.00,,SCT120,0.00,VWS V14.01,2013-08-19 11:20:00,
2013-08-19 07:25:00,61.5,60.9,30.06,WNW,292,0.0,0.0,98,0.00,,SCT120,0.00,VWS V14.01,2013-08-19 11:25:00,
2013-08-19 07:30:00,61.6,61.0,30.06,WNW,292,0.0,1.0,98,0.00,,SCT120,0.00,VWS V14.01,2013-08-19 11:30:00,
2013-08-19 07:35:00,61.6,61.0,30.06,WNW,292,0.0,2.0,98,0.00,,SCT120,0.00,VWS V14.01,2013-08-19 11:35:00,
2013-08-19 07:40:00,61.6,61.0,30.06,WSW,248,1.0,4.0,98,0.00,,SCT120,0.00,VWS V14.01,2013-08-19 11:40:00,
2013-08-19 07:45:00,61.8,61.2,30.06,WSW,248,0.0,2.0,98,0.00,,SCT120,0.00,VWS V14.01,2013-08-19 11:45:00,
2013-08-19 08:10:00,62.3,61.7,30.04,WSW,247,0.0,0.0,98,0.00,,SCT120,0.00,VWS V14.01,2013-08-19 12:10:00,
2013-08-19 08:17:00,61.8,61.2,30.06,WSW,248,0.0,2.0,98,0.00,,SCT120,0.00,VWS V14.01,2013-08-19 12:17:00,
2013-08-19 08:22:00,62.4,61.8,30.05,WSW,247,0.0,0.0,98,0.00,,SCT120,0.00,VWS V14.01,2013-08-19 12:22:00,
2013-08-19 08:27:00,62.4,61.8,30.05,WSW,247,0.0,0.0,98,0.00,,SCT120,0.00,VWS V14.01,2013-08-19 12:27:00,
2013-08-19 08:32:00,62.4,61.8,30.05,WSW,247,0.0,0.0,98,0.00,,CLR,0.00,VWS V14.01,2013-08-19 12:32:00,
2013-08-19 08:37:00,62.7,62.1,30.04,WSW,247,0.0,0.0,98,0.00,,CLR,0.00,VWS V14.01,2013-08-19 12:37:00,
2013-08-19 08:42:00,62.9,62.3,30.04,SW,217,2.0,2.0,98,0.00,,CLR,0.00,VWS V14.01,2013-08-19 12:42:00,
2013-08-19 08:47:00,62.9,62.0,30.04,WNW,290,0.0,0.0,97,0.00,,CLR,0.00,VWS V14.01,2013-08-19 12:47:00,
2013-08-19 08:52:00,63.2,62.3,30.04,WNW,286,0.0,0.0,97,0.00,,CLR,0.00,VWS V14.01,2013-08-19 12:52:00,
2013-08-19 08:57:00,63.7,62.5,30.04,West,271,0.0,0.0,96,0.00,,CLR,0.00,VWS V14.01,2013-08-19 12:57:00,
2013-08-19 09:02:00,64.2,63.0,30.04,SW,233,1.0,2.0,96,0.00,,CLR,0.00,VWS V14.01,2013-08-19 13:02:00,
2013-08-19 09:07:00,64.2,62.4,30.05,WSW,252,0.0,2.0,94,0.00,,CLR,0.00,VWS V14.01,2013-08-19 13:07:00,
2013-08-19 09:12:00,64.7,62.9,30.05,WSW,242,5.0,5.0,94,0.00,,CLR,0.00,VWS V14.01,2013-08-19 13:12:00,
2013-08-19 09:17:00,64.8,62.1,30.05,WSW,256,0.0,0.0,91,0.00,,CLR,0.00,VWS V14.01,2013-08-19 13:17:00,
2013-08-19 09:22:00,65.5,62.5,30.05,SW,223,0.0,1.0,90,0.00,,CLR,0.00,VWS V14.01,2013-08-19 13:22:00,
2013-08-19 09:27:00,66.0,62.0,30.05,West,281,2.0,2.0,87,0.00,,CLR,0.00,VWS V14.01,2013-08-19 13:27:00,
2013-08-19 09:32:00,66.3,61.3,30.05,West,281,0.0,0.0,84,0.00,,CLR,0.00,VWS V14.01,2013-08-19 13:32:00,
2013-08-19 09:37:00,66.6,61.6,30.04,WSW,243,4.0,5.0,84,0.00,,CLR,0.00,VWS V14.01,2013-08-19 13:37:00,
2013-08-19 09:42:00,67.1,61.4,30.04,North,356,0.0,1.0,82,0.00,,CLR,0.00,VWS V14.01,2013-08-19 13:42:00,
2013-08-19 09:47:00,67.4,61.4,30.04,West,259,0.0,0.0,81,0.00,,CLR,0.00,VWS V14.01,2013-08-19 13:47:00,
2013-08-19 09:52:00,67.8,61.8,30.04,West,264,1.0,2.0,81,0.00,,CLR,0.00,VWS V14.01,2013-08-19 13:52:00,
2013-08-19 09:57:00,67.9,61.9,30.04,North,8,0.0,0.0,81,0.00,,CLR,0.00,VWS V14.01,2013-08-19 13:57:00,
2013-08-19 10:02:00,68.3,62.2,30.04,WNW,299,0.0,0.0,81,0.00,,CLR,0.00,VWS V14.01,2013-08-19 14:02:00,
2013-08-19 10:07:00,68.4,62.0,30.04,South,180,0.0,5.0,80,0.00,,CLR,0.00,VWS V14.01,2013-08-19 14:07:00,
2013-08-19 10:12:00,68.8,62.4,30.04,WSW,255,0.0,2.0,80,0.00,,CLR,0.00,VWS V14.01,2013-08-19 14:12:00,
2013-08-19 10:17:00,68.9,62.1,30.04,SW,236,0.0,1.0,79,0.00,,CLR,0.00,VWS V14.01,2013-08-19 14:17:00,
2013-08-19 10:22:00,69.1,63.4,30.04,SSW,210,4.0,4.0,82,0.00,,CLR,0.00,VWS V14.01,2013-08-19 14:22:00,
2013-08-19 10:27:00,69.3,61.4,30.04,SSW,213,0.0,1.0,76,0.00,,CLR,0.00,VWS V14.01,2013-08-19 14:27:00,
2013-08-19 10:32:00,69.4,61.5,30.04,WSW,239,0.0,1.0,76,0.00,,CLR,0.00,VWS V14.01,2013-08-19 14:32:00,
2013-08-19 10:37:00,69.8,62.3,30.04,WNW,292,0.0,0.0,77,0.00,,CLR,0.00,VWS V14.01,2013-08-19 14:37:00,
2013-08-19 10:42:00,70.1,61.8,30.04,NNW,347,0.0,1.0,75,0.00,,CLR,0.00,VWS V14.01,2013-08-19 14:42:00,
2013-08-19 10:47:00,70.4,62.1,30.04,North,4,3.0,3.0,75,0.00,,CLR,0.00,VWS V14.01,2013-08-19 14:47:00,
2013-08-19 10:52:00,70.8,62.1,30.04,North,359,0.0,0.0,74,0.00,,CLR,0.00,VWS V14.01,2013-08-19 14:52:00,
2013-08-19 10:57:00,71.1,63.2,30.04,NNE,17,1.0,3.0,76,0.00,,CLR,0.00,VWS V14.01,2013-08-19 14:57:00,
2013-08-19 11:02:00,70.9,61.8,30.04,SW,224,2.0,4.0,73,0.00,,CLR,0.00,VWS V14.01,2013-08-19 15:02:00,
2013-08-19 11:07:00,70.8,61.3,30.04,WSW,245,0.0,2.0,72,0.00,,CLR,0.00,VWS V14.01,2013-08-19 15:07:00,
2013-08-19 11:12:00,70.8,62.1,30.04,SSE,152,1.0,1.0,74,0.00,,CLR,0.00,VWS V14.01,2013-08-19 15:12:00,
2013-08-19 11:17:00,70.8,61.7,30.04,NW,326,0.0,0.0,73,0.00,,CLR,0.00,VWS V14.01,2013-08-19 15:17:00,
2013-08-19 11:22:00,71.3,63.0,30.03,NNW,334,1.0,1.0,75,0.00,,CLR,0.00,VWS V14.01,2013-08-19 15:22:00,
2013-08-19 11:27:00,71.3,62.2,30.03,WSW,240,2.0,3.0,73,0.00,,CLR,0.00,VWS V14.01,2013-08-19 15:27:00,
2013-08-19 11:32:00,71.3,62.2,30.03,West,266,4.0,5.0,73,0.00,,CLR,0.00,VWS V14.01,2013-08-19 15:32:00,
2013-08-19 11:37:00,71.3,61.8,30.02,SW,232,6.0,6.0,72,0.00,,CLR,0.00,VWS V14.01,2013-08-19 15:37:00,
2013-08-19 11:42:00,71.3,61.8,30.02,SW,225,0.0,1.0,72,0.00,,CLR,0.00,VWS V14.01,2013-08-19 15:42:00,
2013-08-19 11:47:00,71.8,62.3,30.02,North,8,1.0,2.0,72,0.00,,CLR,0.00,VWS V14.01,2013-08-19 15:47:00,
2013-08-19 11:52:00,72.5,63.4,30.02,NNE,25,4.0,4.0,73,0.00,,CLR,0.00,VWS V14.01,2013-08-19 15:52:00,
2013-08-19 11:57:00,73.0,62.7,30.02,WSW,251,0.0,3.0,70,0.00,,CLR,0.00,VWS V14.01,2013-08-19 15:57:00,
2013-08-19 12:02:00,73.2,61.6,30.02,SSW,212,4.0,5.0,67,0.00,,CLR,0.00,VWS V14.01,2013-08-19 16:02:00,
2013-08-19 12:07:00,72.7,61.1,30.02,SW,232,0.0,2.0,67,0.00,,CLR,0.00,VWS V14.01,2013-08-19 16:07:00,
2013-08-19 12:12:00,72.7,62.0,30.02,WSW,241,2.0,2.0,69,0.00,,CLR,0.00,VWS V14.01,2013-08-19 16:12:00,
2013-08-19 12:17:00,72.7,61.5,30.02,WSW,254,5.0,5.0,68,0.00,,CLR,0.00,VWS V14.01,2013-08-19 16:17:00,
2013-08-19 12:22:00,73.0,62.2,30.02,WSW,245,1.0,2.0,69,0.00,,CLR,0.00,VWS V14.01,2013-08-19 16:22:00,
2013-08-19 12:27:00,73.2,62.4,30.02,WNW,283,5.0,5.0,69,0.00,,CLR,0.00,VWS V14.01,2013-08-19 16:27:00,
2013-08-19 12:32:00,73.2,62.0,30.02,West,259,0.0,6.0,68,0.00,,CLR,0.00,VWS V14.01,2013-08-19 16:32:00,
2013-08-19 12:37:00,73.3,61.3,30.01,NNW,331,2.0,3.0,66,0.00,,CLR,0.00,VWS V14.01,2013-08-19 16:37:00,
2013-08-19 12:42:00,73.3,61.3,30.01,SW,236,1.0,2.0,66,0.00,,CLR,0.00,VWS V14.01,2013-08-19 16:42:00,
2013-08-19 12:47:00,73.2,61.6,30.01,WSW,243,6.0,6.0,67,0.00,,CLR,0.00,VWS V14.01,2013-08-19 16:47:00,
2013-08-19 12:52:00,73.2,61.2,30.01,WSW,243,0.0,0.0,66,0.00,,CLR,0.00,VWS V14.01,2013-08-19 16:52:00,
2013-08-19 12:57:00,73.2,61.6,30.01,WSW,243,2.0,2.0,67,0.00,,CLR,0.00,VWS V14.01,2013-08-19 16:57:00,
2013-08-19 13:02:00,73.3,62.1,30.01,SSW,212,1.0,1.0,68,0.00,,CLR,0.00,VWS V14.01,2013-08-19 17:02:00,
2013-08-19 13:07:00,73.3,62.1,30.01,SW,215,8.0,8.0,68,0.00,,CLR,0.00,VWS V14.01,2013-08-19 17:07:00,
2013-08-19 13:12:00,73.2,62.0,30.01,NW,310,0.0,0.0,68,0.00,,CLR,0.00,VWS V14.01,2013-08-19 17:12:00,
2013-08-19 13:17:00,73.3,62.1,30.01,WSW,241,5.0,6.0,68,0.00,,CLR,0.00,VWS V14.01,2013-08-19 17:17:00,
2013-08-19 13:22:00,73.3,61.7,30.01,WSW,238,0.0,3.0,67,0.00,,CLR,0.00,VWS V14.01,2013-08-19 17:22:00,
2013-08-19 13:27:00,73.3,61.7,30.01,SW,231,5.0,5.0,67,0.00,,CLR,0.00,VWS V14.01,2013-08-19 17:27:00,
2013-08-19 13:32:00,73.5,62.7,30.01,SW,219,2.0,3.0,69,0.00,,CLR,0.00,VWS V14.01,2013-08-19 17:32:00,
2013-08-19 13:37:00,73.3,62.1,30.00,WSW,241,0.0,1.0,68,0.00,,CLR,0.00,VWS V14.01,2013-08-19 17:37:00,
2013-08-19 13:42:00,73.7,62.5,30.00,WSW,242,1.0,2.0,68,0.00,,CLR,0.00,VWS V14.01,2013-08-19 17:42:00,
2013-08-19 13:47:00,73.9,61.8,30.00,WSW,241,0.0,6.0,66,0.00,,CLR,0.00,VWS V14.01,2013-08-19 17:47:00,
2013-08-19 13:52:00,74.0,61.9,30.00,SW,231,0.0,1.0,66,0.00,,CLR,0.00,VWS V14.01,2013-08-19 17:52:00,
2013-08-19 13:57:00,74.0,63.2,30.00,SSW,212,6.0,7.0,69,0.00,,CLR,0.00,VWS V14.01,2013-08-19 17:57:00,
2013-08-19 14:02:00,74.2,63.4,30.00,SSW,209,1.0,1.0,69,0.00,,CLR,0.00,VWS V14.01,2013-08-19 18:02:00,
2013-08-19 14:07:00,74.4,64.0,30.00,NNW,346,1.0,1.0,70,0.00,,CLR,0.00,VWS V14.01,2013-08-19 18:07:00,
2013-08-19 14:12:00,74.6,63.3,30.00,West,266,1.0,2.0,68,0.00,,CLR,0.00,VWS V14.01,2013-08-19 18:12:00,
2013-08-19 14:17:00,74.4,63.2,30.00,SW,230,0.0,1.0,68,0.00,,CLR,0.00,VWS V14.01,2013-08-19 18:17:00,
2013-08-19 14:22:00,74.2,63.8,30.00,SW,219,6.0,6.0,70,0.00,,CLR,0.00,VWS V14.01,2013-08-19 18:22:00,
2013-08-19 14:27:00,74.4,63.6,30.00,NE,39,0.0,1.0,69,0.00,,CLR,0.00,VWS V14.01,2013-08-19 18:27:00,
2013-08-19 14:32:00,74.7,64.3,30.00,SW,220,2.0,2.0,70,0.00,,CLR,0.00,VWS V14.01,2013-08-19 18:32:00,
2013-08-19 14:37:00,74.9,64.1,30.00,SSW,210,0.0,3.0,69,0.00,,CLR,0.00,VWS V14.01,2013-08-19 18:37:00,
2013-08-19 14:42:00,75.1,63.8,30.00,SSW,204,1.0,1.0,68,0.00,,CLR,0.00,VWS V14.01,2013-08-19 18:42:00,
2013-08-19 14:47:00,75.1,63.8,30.00,SW,236,0.0,4.0,68,0.00,,CLR,0.00,VWS V14.01,2013-08-19 18:47:00,
2013-08-19 14:52:00,75.1,63.8,30.00,NNW,333,4.0,7.0,68,0.00,,FEW025,0.00,VWS V14.01,2013-08-19 18:52:00,
2013-08-19 14:57:00,75.1,63.4,30.00,West,272,4.0,4.0,67,0.00,,FEW025,0.00,VWS V14.01,2013-08-19 18:57:00,
2013-08-19 15:02:00,75.3,64.4,30.00,SW,220,6.0,6.0,69,0.00,,FEW025,0.00,VWS V14.01,2013-08-19 19:02:00,
2013-08-19 15:07:00,75.1,63.8,29.99,WSW,257,0.0,0.0,68,0.00,,FEW025,0.00,VWS V14.01,2013-08-19 19:07:00,
2013-08-19 15:12:00,75.3,64.8,29.99,WNW,292,0.0,1.0,70,0.00,,FEW025,0.00,VWS V14.01,2013-08-19 19:12:00,
2013-08-19 15:17:00,75.4,63.7,29.99,North,6,0.0,0.0,67,0.00,,FEW025,0.00,VWS V14.01,2013-08-19 19:17:00,
2013-08-19 15:22:00,75.4,64.5,29.99,SW,227,1.0,1.0,69,0.00,,FEW025,0.00,VWS V14.01,2013-08-19 19:22:00,
2013-08-19 15:27:00,75.4,64.1,29.99,NW,311,1.0,1.0,68,0.00,,FEW025,0.00,VWS V14.01,2013-08-19 19:27:00,
2013-08-19 15:32:00,75.3,64.4,29.99,WSW,252,1.0,2.0,69,0.00,,CLR,0.00,VWS V14.01,2013-08-19 19:32:00,
2013-08-19 15:37:00,74.9,63.6,29.99,NW,315,1.0,1.0,68,0.00,,CLR,0.00,VWS V14.01,2013-08-19 19:37:00,
2013-08-19 15:42:00,74.6,64.2,29.99,West,274,0.0,0.0,70,0.00,,CLR,0.00,VWS V14.01,2013-08-19 19:42:00,
2013-08-19 15:47:00,74.2,63.8,29.99,SW,219,4.0,4.0,70,0.00,,CLR,0.00,VWS V14.01,2013-08-19 19:47:00,
2013-08-19 15:52:00,74.0,64.0,29.99,WNW,290,0.0,1.0,71,0.00,,CLR,0.00,VWS V14.01,2013-08-19 19:52:00,
2013-08-19 15:57:00,73.9,64.7,29.99,SW,215,0.0,1.0,73,0.00,,CLR,0.00,VWS V14.01,2013-08-19 19:57:00,
2013-08-19 16:02:00,73.5,64.3,29.99,WSW,238,0.0,1.0,73,0.00,,CLR,0.00,VWS V14.01,2013-08-19 20:02:00,
2013-08-19 16:07:00,73.2,64.4,29.99,WNW,283,0.0,0.0,74,0.00,,CLR,0.00,VWS V14.01,2013-08-19 20:07:00,
2013-08-19 16:12:00,72.7,64.7,29.99,WSW,258,1.0,4.0,76,0.00,,CLR,0.00,VWS V14.01,2013-08-19 20:12:00,
2013-08-19 16:17:00,72.1,65.2,29.99,North,358,0.0,0.0,79,0.02,,CLR,0.02,VWS V14.01,2013-08-19 20:17:00,
2013-08-19 16:22:00,71.8,65.7,29.99,WNW,293,0.0,0.0,81,0.02,,CLR,0.02,VWS V14.01,2013-08-19 20:22:00,
2013-08-19 16:27:00,71.8,66.0,29.99,WNW,291,0.0,0.0,82,0.02,,CLR,0.02,VWS V14.01,2013-08-19 20:27:00,
2013-08-19 16:32:00,71.8,66.7,29.99,SW,225,1.0,1.0,84,0.02,,FEW046,0.02,VWS V14.01,2013-08-19 20:32:00,
2013-08-19 16:37:00,72.0,67.2,29.99,SW,225,0.0,0.0,85,0.02,,FEW046,0.02,VWS V14.01,2013-08-19 20:37:00,
2013-08-19 16:42:00,72.0,66.9,29.99,SW,214,0.0,0.0,84,0.02,,FEW046,0.02,VWS V14.01,2013-08-19 20:42:00,
2013-08-19 16:47:00,72.1,67.0,29.99,SW,232,1.0,4.0,84,0.02,,FEW046,0.02,VWS V14.01,2013-08-19 20:47:00,
2013-08-19 16:52:00,72.1,66.7,29.99,SW,234,0.0,0.0,83,0.02,,CLR,0.02,VWS V14.01,2013-08-19 20:52:00,
2013-08-19 16:57:00,72.3,66.8,29.99,SW,216,0.0,2.0,83,0.02,,CLR,0.02,VWS V14.01,2013-08-19 20:57:00,
2013-08-19 17:02:00,72.3,66.2,29.99,SW,228,1.0,3.0,81,0.02,,CLR,0.02,VWS V14.01,2013-08-19 21:02:00,
2013-08-19 17:07:00,72.3,66.2,29.98,WSW,244,0.0,1.0,81,0.02,,CLR,0.02,VWS V14.01,2013-08-19 21:07:00,
2013-08-19 17:12:00,72.3,66.5,29.98,WSW,242,4.0,7.0,82,0.02,,CLR,0.02,VWS V14.01,2013-08-19 21:12:00,
2013-08-19 17:17:00,72.1,65.6,29.98,WSW,248,0.0,1.0,80,0.00,,CLR,0.02,VWS V14.01,2013-08-19 21:17:00,
2013-08-19 17:22:00,72.1,65.9,29.99,SW,236,5.0,6.0,81,0.00,,CLR,0.02,VWS V14.01,2013-08-19 21:22:00,
2013-08-19 17:27:00,72.1,65.9,29.99,SW,227,0.0,1.0,81,0.00,,CLR,0.02,VWS V14.01,2013-08-19 21:27:00,
2013-08-19 17:32:00,72.3,66.2,29.99,WSW,252,0.0,1.0,81,0.00,,CLR,0.02,VWS V14.01,2013-08-19 21:32:00,
2013-08-19 17:37:00,72.3,66.2,29.99,SW,227,0.0,0.0,81,0.00,,CLR,0.02,VWS V14.01,2013-08-19 21:37:00,
2013-08-19 17:42:00,73.0,66.8,29.99,SW,228,0.0,0.0,81,0.00,,CLR,0.02,VWS V14.01,2013-08-19 21:42:00,
2013-08-19 17:47:00,73.3,66.4,29.99,West,274,1.0,1.0,79,0.00,,CLR,0.02,VWS V14.01,2013-08-19 21:47:00,
2013-08-19 17:52:00,73.5,66.6,29.99,WSW,241,0.0,4.0,79,0.00,,BKN070,0.02,VWS V14.01,2013-08-19 21:52:00,
2013-08-19 17:57:00,73.7,66.8,29.99,SW,236,0.0,0.0,79,0.00,,BKN070,0.02,VWS V14.01,2013-08-19 21:57:00,
2013-08-19 18:02:00,73.9,66.2,29.99,WSW,252,2.0,6.0,77,0.00,,BKN070,0.02,VWS V14.01,2013-08-19 22:02:00,
2013-08-19 18:07:00,73.9,66.6,29.98,SW,231,5.0,6.0,78,0.00,,BKN070,0.02,VWS V14.01,2013-08-19 22:07:00,
2013-08-19 18:12:00,73.7,66.1,29.98,WSW,243,1.0,1.0,77,0.00,,BKN070,0.02,VWS V14.01,2013-08-19 22:12:00,
2013-08-19 18:17:00,73.7,66.1,29.98,WSW,240,2.0,2.0,77,0.00,,BKN070,0.02,VWS V14.01,2013-08-19 22:17:00,
2013-08-19 18:22:00,73.5,65.5,29.98,SW,233,2.0,2.0,76,0.00,,BKN070,0.02,VWS V14.01,2013-08-19 22:22:00,
2013-08-19 18:27:00,73.5,65.9,29.98,West,261,4.0,5.0,77,0.00,,BKN070,0.02,VWS V14.01,2013-08-19 22:27:00,
2013-08-19 18:32:00,73.2,65.2,29.98,West,276,3.0,6.0,76,0.00,,OVC070,0.02,VWS V14.01,2013-08-19 22:32:00,
2013-08-19 18:37:00,73.0,65.4,29.98,West,262,2.0,2.0,77,0.00,,OVC070,0.02,VWS V14.01,2013-08-19 22:37:00,
2013-08-19 18:42:00,73.0,65.4,29.98,WSW,245,1.0,4.0,77,0.00,,OVC070,0.02,VWS V14.01,2013-08-19 22:42:00,
2013-08-19 18:47:00,73.0,65.7,29.98,WSW,237,0.0,1.0,78,0.00,,OVC070,0.02,VWS V14.01,2013-08-19 22:47:00,
2013-08-19 18:52:00,73.0,65.4,29.98,SW,233,1.0,1.0,77,0.00,,OVC070,0.02,VWS V14.01,2013-08-19 22:52:00,
2013-08-19 18:57:00,73.0,65.4,29.98,SW,236,0.0,1.0,77,0.00,,OVC070,0.02,VWS V14.01,2013-08-19 22:57:00,
2013-08-19 19:02:00,73.2,65.6,29.98,SW,214,2.0,4.0,77,0.00,,OVC070,0.02,VWS V14.01,2013-08-19 23:02:00,
2013-08-19 19:07:00,73.0,65.0,29.98,SW,229,2.0,6.0,76,0.00,,OVC070,0.02,VWS V14.01,2013-08-19 23:07:00,
2013-08-19 19:12:00,73.0,65.0,29.98,WSW,248,2.0,2.0,76,0.00,,OVC070,0.02,VWS V14.01,2013-08-19 23:12:00,
2013-08-19 19:17:00,73.0,65.4,29.98,SW,226,1.0,1.0,77,0.00,,OVC070,0.02,VWS V14.01,2013-08-19 23:17:00,
2013-08-19 19:22:00,72.8,65.2,29.98,SW,229,0.0,1.0,77,0.00,,OVC070,0.02,VWS V14.01,2013-08-19 23:22:00,
2013-08-19 19:27:00,72.7,65.4,29.98,SW,229,0.0,2.0,78,0.00,,OVC070,0.02,VWS V14.01,2013-08-19 23:27:00,
2013-08-19 19:32:00,72.5,65.3,29.98,SW,229,0.0,0.0,78,0.00,,SCT070,0.02,VWS V14.01,2013-08-19 23:32:00,
2013-08-19 19:37:00,72.1,65.2,29.98,SW,229,0.0,0.0,79,0.00,,SCT070,0.02,VWS V14.01,2013-08-19 23:37:00,
2013-08-19 19:42:00,72.0,65.1,29.98,SW,229,0.0,0.0,79,0.00,,SCT070,0.02,VWS V14.01,2013-08-19 23:42:00,
2013-08-19 19:47:00,71.8,64.9,29.98,SW,229,0.0,0.0,79,0.00,,SCT070,0.02,VWS V14.01,2013-08-19 23:47:00,
2013-08-19 19:52:00,71.3,64.8,29.98,SW,229,0.0,0.0,80,0.00,,SCT070,0.02,VWS V14.01,2013-08-19 23:52:00,
2013-08-19 19:57:00,70.9,64.8,29.98,SW,229,0.0,0.0,81,0.00,,CLR,0.02,VWS V14.01,2013-08-19 23:57:00,
2013-08-19 20:02:00,70.6,64.8,29.98,SW,229,0.0,0.0,82,0.00,,CLR,0.02,VWS V14.01,2013-08-20 00:02:00,
2013-08-19 20:07:00,70.1,64.4,29.98,SW,229,0.0,0.0,82,0.00,,CLR,0.02,VWS V14.01,2013-08-20 00:07:00,
2013-08-19 20:12:00,69.6,64.6,29.98,SW,229,0.0,0.0,84,0.00,,CLR,0.02,VWS V14.01,2013-08-20 00:12:00,
2013-08-19 20:17:00,69.3,64.3,29.98,SW,229,0.0,0.0,84,0.00,,CLR,0.02,VWS V14.01,2013-08-20 00:17:00,
2013-08-19 20:22:00,68.9,64.2,29.98,SW,229,0.0,0.0,85,0.00,,CLR,0.02,VWS V14.01,2013-08-20 00:22:00,
2013-08-19 20:27:00,68.6,63.9,29.98,SW,229,0.0,0.0,85,0.00,,CLR,0.02,VWS V14.01,2013-08-20 00:27:00,
2013-08-19 20:32:00,68.3,63.6,29.98,SW,229,0.0,0.0,85,0.00,,FEW060,0.02,VWS V14.01,2013-08-20 00:32:00,
2013-08-19 20:37:00,68.1,63.8,29.98,SW,229,0.0,0.0,86,0.00,,FEW060,0.02,VWS V14.01,2013-08-20 00:37:00,
2013-08-19 20:42:00,67.8,63.8,29.98,SW,229,0.0,0.0,87,0.00,,FEW060,0.02,VWS V14.01,2013-08-20 00:42:00,
2013-08-19 20:47:00,67.4,63.7,29.98,SW,229,0.0,0.0,88,0.00,,FEW060,0.02,VWS V14.01,2013-08-20 00:47:00,
2013-08-19 20:52:00,67.3,63.6,29.98,SW,229,0.0,0.0,88,0.00,,CLR,0.02,VWS V14.01,2013-08-20 00:52:00,
2013-08-19 20:57:00,67.1,63.4,29.98,SW,229,0.0,0.0,88,0.00,,CLR,0.02,VWS V14.01,2013-08-20 00:57:00,
2013-08-19 21:02:00,66.8,63.5,29.98,SW,229,0.0,0.0,89,0.00,,CLR,0.02,VWS V14.01,2013-08-20 01:02:00,
2013-08-19 21:07:00,66.6,63.6,29.98,SW,229,0.0,0.0,90,0.00,,CLR,0.02,VWS V14.01,2013-08-20 01:07:00,
2013-08-19 21:12:00,66.4,63.4,29.98,SW,229,0.0,0.0,90,0.00,,CLR,0.02,VWS V14.01,2013-08-20 01:12:00,
2013-08-19 21:17:00,66.3,63.6,29.98,SW,229,0.0,0.0,91,0.00,,CLR,0.02,VWS V14.01,2013-08-20 01:17:00,
2013-08-19 21:22:00,66.1,63.4,29.98,SW,229,0.0,0.0,91,0.00,,CLR,0.02,VWS V14.01,2013-08-20 01:22:00,
2013-08-19 21:27:00,66.0,63.3,29.98,SW,229,0.0,0.0,91,0.00,,CLR,0.02,VWS V14.01,2013-08-20 01:27:00,
2013-08-19 21:32:00,65.8,63.1,29.98,SW,229,0.0,0.0,91,0.00,,CLR,0.02,VWS V14.01,2013-08-20 01:32:00,
2013-08-19 21:37:00,65.8,63.4,29.99,SW,229,0.0,0.0,92,0.00,,CLR,0.02,VWS V14.01,2013-08-20 01:37:00,
2013-08-19 21:42:00,65.8,63.4,29.99,SW,229,0.0,0.0,92,0.00,,CLR,0.02,VWS V14.01,2013-08-20 01:42:00,
2013-08-19 21:47:00,65.6,63.5,29.99,SW,229,0.0,0.0,93,0.00,,CLR,0.02,VWS V14.01,2013-08-20 01:47:00,
2013-08-19 21:52:00,65.6,63.5,29.99,SW,229,0.0,0.0,93,0.00,,CLR,0.02,VWS V14.01,2013-08-20 01:52:00,
2013-08-19 21:57:00,65.5,63.4,29.99,SW,229,0.0,0.0,93,0.00,,CLR,0.02,VWS V14.01,2013-08-20 01:57:00,
2013-08-19 22:02:00,65.3,63.2,29.99,SW,229,0.0,0.0,93,0.00,,CLR,0.02,VWS V14.01,2013-08-20 02:02:00,
2013-08-19 22:07:00,65.3,63.2,29.99,SW,229,0.0,0.0,93,0.00,,CLR,0.02,VWS V14.01,2013-08-20 02:07:00,
2013-08-19 22:12:00,65.3,63.2,29.99,SW,229,0.0,0.0,93,0.00,,CLR,0.02,VWS V14.01,2013-08-20 02:12:00,
2013-08-19 22:17:00,65.2,63.4,29.99,SW,229,0.0,0.0,94,0.00,,CLR,0.02,VWS V14.01,2013-08-20 02:17:00,
2013-08-19 22:22:00,65.0,63.2,29.99,SW,229,0.0,0.0,94,0.00,,CLR,0.02,VWS V14.01,2013-08-20 02:22:00,
2013-08-19 22:27:00,65.0,63.2,29.99,SW,229,0.0,0.0,94,0.00,,CLR,0.02,VWS V14.01,2013-08-20 02:27:00,
2013-08-19 22:32:00,64.8,63.0,29.99,SW,228,0.0,0.0,94,0.00,,CLR,0.02,VWS V14.01,2013-08-20 02:32:00,
2013-08-19 22:37:00,64.8,63.0,30.00,SW,229,0.0,0.0,94,0.00,,CLR,0.02,VWS V14.01,2013-08-20 02:37:00,
2013-08-19 22:42:00,64.8,63.0,30.00,SW,229,0.0,0.0,94,0.00,,CLR,0.02,VWS V14.01,2013-08-20 02:42:00,
2013-08-19 22:47:00,64.8,63.3,30.00,SW,229,0.0,0.0,95,0.00,,CLR,0.02,VWS V14.01,2013-08-20 02:47:00,
2013-08-19 22:52:00,64.8,63.3,30.00,SW,229,0.0,0.0,95,0.00,,CLR,0.02,VWS V14.01,2013-08-20 02:52:00,
2013-08-19 22:57:00,64.7,63.2,30.00,SW,229,0.0,0.0,95,0.00,,CLR,0.02,VWS V14.01,2013-08-20 02:57:00,
2013-08-19 23:02:00,64.8,63.3,30.00,SW,229,0.0,0.0,95,0.00,,CLR,0.02,VWS V14.01,2013-08-20 03:02:00,
2013-08-19 23:07:00,64.8,63.3,30.00,SW,229,0.0,0.0,95,0.00,,CLR,0.02,VWS V14.01,2013-08-20 03:07:00,
2013-08-19 23:12:00,64.8,63.3,30.00,SW,229,0.0,0.0,95,0.00,,CLR,0.02,VWS V14.01,2013-08-20 03:12:00,
2013-08-19 23:17:00,64.8,63.3,30.00,SW,229,0.0,0.0,95,0.00,,CLR,0.02,VWS V14.01,2013-08-20 03:17:00,
2013-08-19 23:22:00,64.7,63.2,30.00,SW,229,0.0,0.0,95,0.00,,CLR,0.02,VWS V14.01,2013-08-20 03:22:00,
2013-08-19 23:27:00,64.7,63.2,30.00,SW,229,0.0,0.0,95,0.00,,CLR,0.02,VWS V14.01,2013-08-20 03:27:00,
2013-08-19 23:32:00,64.5,63.0,30.00,SW,229,0.0,0.0,95,0.00,,CLR,0.02,VWS V14.01,2013-08-20 03:32:00,
2013-08-19 23:37:00,64.5,63.0,30.00,SW,229,0.0,0.0,95,0.00,,CLR,0.02,VWS V14.01,2013-08-20 03:37:00,
2013-08-19 23:42:00,64.3,62.8,30.00,SW,229,0.0,0.0,95,0.00,,CLR,0.02,VWS V14.01,2013-08-20 03:42:00,
2013-08-19 23:47:00,64.2,62.7,30.00,SW,229,0.0,0.0,95,0.00,,CLR,0.02,VWS V14.01,2013-08-20 03:47:00,
2013-08-19 23:52:00,64.0,62.5,30.00,SW,229,0.0,0.0,95,0.00,,CLR,0.02,VWS V14.01,2013-08-20 03:52:00,
2013-08-19 23:57:00,64.0,62.5,30.00,SW,229,0.0,0.0,95,0.00,,CLR,0.02,VWS V14.01,2013-08-20 03:57:00,